sat.trackr.live / text

‹ back to catalog

ONEWEB-0278

NORAD 48996 · 2021-060AF

PAYLOAD ACTIVE UNKNOWN

§ Identity

Operator
Country
UK
Launch date
2021-07-01
Launch site
VOSTO
Launch vehicle
Mass (kg)
RCS (m²)

Purposes: comms

External: N2YO · Heavens-Above · Gunter

§ Orbital elements

Epoch: 2026-05-24T22:26:05.182080Z

Period
109.37 min
Inclination
87.9110°
Eccentricity
0.0002081
Mean motion
13.16595545 rev/d
Perigee alt
1,196.2 km
Apogee alt
1,199.3 km
Semi-major
7,575.9 km
B*
-1.3915e-5
RAAN
233.3904°
Arg perigee
106.8185°
Mean anomaly
253.3175°
Rev number
23,663

§ Raw data

ONEWEB-02781 48996U 21060AF  26144.93478220  .00000008  00000+0 -13915-4 0  99982 48996  87.9110 233.3904 0002081 106.8185 253.3175 13.16595545236638

JSON: /api/v1/satellites/48996 · /tle

For live sub-satellite position, see the globe view (requires WebGL).

§ Visibility from observer

Set your observer location to see the next 7 days of passes ≥ 10°. The values pass through the URL so the page stays shareable.

No JS? Fill the form by hand. The geolocation button needs JavaScript.